Location: Unspecified
(51.6250°N, 0.8230°E)
Time: 11:53:31
(UTC+01:00)

CZ-3 Stage 3 - Pass Details

Date: 10 August 2020
Orbit: 426 x 34763 km, 31.1° (Epoch: 22 September)

Event Time Altitude Azimuth Distance (km) Brightness Sun altitude
Rises 00:37:54 0° 95° (E) 19,287 9.5 -22.7°
Reaches altitude 10° 01:35:30 10° 84° (E) 28,034 10.6 -22.5°
Maximum altitude 06:48:34 35° 93° (E) 32,032 12.0 10.0°
Drops below altitude 10° 08:52:36 10° 91° (E) 16,536 10.8 29.1°
Sets 09:04:12 0° 89° (E) 14,836 10.1 30.8°
